Regional Weather Roundup
Issued by NWS

Home | Current Version | Previous Version | Graphics & Text | Print | Product List | Glossary On
Versions: 1 2 3 4 5 6 7 8 9 10 11 12 13 14 15 16 17 18 19 20 21 22 23 24 25 26 27 28 29 30 31 32 33 34 35 36 37 38 39 40 41 42 43 44 45 46 47 48 49 50
000
ASUS43 KTOP 201208
RWRKS

WEATHER ROUNDUP FOR KANSAS
NATIONAL WEATHER SERVICE GOODLAND KS
600 AM CST MON FEB 20 2017

NOTE:  "FAIR" INDICATES FEW OR NO CLOUDS BELOW 12,000 FEET WITH NO
SIGNIFICANT WEATHER AND/OR OBSTRUCTIONS TO VISIBILITY.

KSZ001>006-013>018-027>032-041>047-201300-
NORTHWEST KANSAS

CITY           SKY/WX    TMP DP  RH WIND       PRES   REMARKS
GOODLAND       PTCLDY    47  27  45 NW24      29.78R
6HR MIN TEMP:  44; 6HR MAX TEMP:  51;

HAYS           CLOUDY    53  50  89 S9        29.71F
HILL CITY      MOCLDY    51  43  74 W9        29.71S
6HR MIN TEMP:  51; 6HR MAX TEMP:  55;

RUSSELL        CLOUDY    56  54  93 S13       29.71F
6HR MIN TEMP:  55; 6HR MAX TEMP:  58;

$$

KSZ061>065-074>080-084>089-201300-
SOUTHWEST KANSAS

CITY           SKY/WX    TMP DP  RH WIND       PRES   REMARKS
DODGE CITY     CLOUDY    50  39  66 SW7       29.74R
6HR MIN TEMP:  50; 6HR MAX TEMP:  55;

ELKHART          N/A     43  24  47 NW10        N/A
GARDEN CITY    CLOUDY    45  34  65 NW8       29.75R
6HR MIN TEMP:  44; 6HR MAX TEMP:  50;

GREAT BEND     CLOUDY    54  53  97 S10       29.75R
LIBERAL        MOCLDY    43  27  52 W10       29.76R
PRATT          CLOUDY    52  51  95 S10       29.76R
6HR MIN TEMP:  52; 6HR MAX TEMP:  56;

$$

KSZ066>073-081>083-090>101-201300-
SOUTHEAST KANSAS

CITY           SKY/WX    TMP DP  RH WIND       PRES   REMARKS
CHANUTE        CLOUDY    60  56  86 S10       29.83S
6HR MIN TEMP:  59; 6HR MAX TEMP:  67; 6HR PCP:  0.02;

COFFEYVILLE    CLOUDY    60  59  96 S12       29.84R
6HR MIN TEMP:  60; 6HR MAX TEMP:  66; 6HR PCP:  0.07;

HUTCHINSON     CLOUDY    57  55  93 S14       29.77R
6HR MIN TEMP:  57; 6HR MAX TEMP:  59; 6HR PCP:  0.06;

MEDICINE LODGE   N/A     54  53  97 SE7       29.75R
NEWTON         CLOUDY    56  56 100 S21       29.81R
PARSONS        CLOUDY    60  57  89 S7        29.84R
6HR MIN TEMP:  60; 6HR MAX TEMP:  67; 6HR PCP:  0.03;

WICHITA INTL   CLOUDY    58  57  97 S14       29.81R
6HR MIN TEMP:  57; 6HR MAX TEMP:  58; 6HR PCP:  0.31;

WICHITA JABRA  CLOUDY    57  57 100 S14       29.82R
6HR MIN TEMP:  56; 6HR MAX TEMP:  59; 6HR PCP:  0.14;

WICHITA MCCONL CLOUDY    58  57  98 SW12      29.81R
WINFIELD       CLOUDY    58  56  93 S12       29.81F
6HR MIN TEMP:  57; 6HR MAX TEMP:  59; 6HR PCP:  0.43;

$$

KSZ007>012-019>026-033>040-048>060-102>105-201300-
NORTHEAST KANSAS

CITY           SKY/WX    TMP DP  RH WIND       PRES   REMARKS
CONCORDIA      CLOUDY    58  58 100 S12       29.73F FOG
6HR MIN TEMP:  58; 6HR MAX TEMP:  60; 6HR PCP: TRACE;

EMPORIA        CLOUDY    58  57  97 SE13      29.77F
6HR MIN TEMP:  57; 6HR MAX TEMP:  63; 6HR PCP:  0.68;

LAWRENCE       CLOUDY    62  56  80 SE12      29.81F
6HR MIN TEMP:  58; 6HR MAX TEMP:  65;

MANHATTAN      CLOUDY    58  56  93 S5        29.75F
6HR MIN TEMP:  58; 6HR MAX TEMP:  62; 6HR PCP:  0.39;

MARYSVILLE     CLOUDY    57  55  94 S9        29.77S
OLATHE IND     CLOUDY    62  54  74 SE9       29.84F
6HR MIN TEMP:  59; 6HR MAX TEMP:  63;

OLATHE EXE     CLOUDY    61  55  81 SE9       29.84F
6HR MIN TEMP:  59; 6HR MAX TEMP:  62;

SALINA         CLOUDY    60  58  92 S14       29.75R
6HR MIN TEMP:  60; 6HR MAX TEMP:  61; 6HR PCP:  0.01;

TOPEKA BILLARD CLOUDY    61  57  87 SE13      29.78F
6HR MIN TEMP:  57; 6HR MAX TEMP:  65; 6HR PCP:  0.11;

TOPEKA FORBES  CLOUDY    61  57  87 SE13      29.79S
6HR MIN TEMP:  60; 6HR MAX TEMP:  66; 6HR PCP:  0.13;

$$




USA.gov is the U.S. government's official web portal to all federal, state and local government web resources and services.